1519808401.19,19235,4.38,71778.8,-14.63,-24.11,-21.39,0,*63
1519808402.42,19236,4.38,71776.0,-14.61,-24.41,-21.43,0,*6A
1519808403.72,19237,4.38,71776.0,-14.55,-24.87,-21.97,0,*6F
1519808404.97,19238,4.38,71772.8,-14.55,-25.65,-22.87,0,*6F
1519808406.2,19239,4.38,71776.5,-14.57,-27.19,-24.35,0,*6A
1519808407.51,19240,4.38,71772.0,-14.55,-26.81,-23.99,0,*67
1519808408.73,19241,4.38,71770.8,-14.57,-26.39,-23.75,0,*65
1519808410.01,19242,4.38,71778.5,-14.55,-25.55,-22.87,0,*61
1519808411.29,19243,4.38,71776.5,-14.55,-25.71,-22.93,0,*63
1519808412.54,19244,4.38,71776.0,-14.53,-25.65,-23.03,0,*6F
1519808413.76,19245,4.38,71778.8,-14.53,-25.35,-22.67,0,*68
1519808414.99,19246,4.38,71776.3,-14.53,-25.49,-22.83,0,*6A
1519808416.24,19247,4.38,71772.8,-14.49,-25.91,-23.19,0,*67
1519808417.49,19248,4.38,71772.3,-14.49,-26.49,-23.65,0,*65
1519808418.73,19249,4.38,71778.0,-14.45,-26.23,-23.33,0,*67
1519808419.96,19250,4.38,71776.3,-14.49,-26.49,-23.79,0,*61
1519808421.22,19251,4.38,71776.3,-14.47,-25.91,-23.29,0,*6D
1519808422.47,19252,4.38,71778.8,-14.45,-25.29,-22.67,0,*64
1519808423.71,19253,4.44,71780.0,-14.47,-25.23,-22.53,0,*6A
1519808424.96,19254,4.38,71776.8,-14.45,-24.77,-22.21,0,*6A
1519808426.27,19255,4.38,71772.5,-14.43,-25.55,-23.03,0,*6D
1519808427.51,19256,4.38,71772.0,-14.43,-27.13,-24.51,0,*6E
1519808428.78,19257,4.38,71772.0,-14.43,-27.99,-25.23,0,*69
1519808430.01,19258,4.38,71776.8,-14.45,-27.03,-24.47,0,*60
1519808431.28,19259,4.44,71772.0,-14.45,-27.23,-24.71,0,*66
1519808432.56,19260,4.38,71770.3,-14.47,-28.05,-25.39,0,*68
1519808433.86,19261,4.38,71772.0,-14.47,-29.13,-26.71,0,*60
1519808435.14,19262,4.38,71774.5,-14.49,-28.59,-25.97,0,*69
1519808436.39,19263,4.38,71772.3,-14.53,-29.67,-27.61,0,*64
1519808437.64,19264,4.38,71772.8,-14.57,-28.43,-26.23,0,*67
1519808438.91,19265,4.38,71776.8,-14.57,-28.43,-26.17,0,*61
1519808440.18,19266,4.38,71782.5,-14.59,-26.93,-24.61,0,*6C
1519808441.42,19267,4.38,71776.8,-14.61,-26.17,-23.79,0,*64
1519808442.67,19268,4.38,71770.8,-14.59,-25.91,-23.43,0,*64
1519808443.97,19269,4.44,71774.0,-14.59,-26.33,-23.65,0,*6A
1519808445.24,19270,4.38,71768.5,-14.57,-26.29,-23.49,0,*69
1519808446.48,19271,4.44,71772.0,-14.59,-27.51,-24.93,0,*68
1519808447.7,19272,4.38,71770.5,-14.57,-27.51,-24.93,0,*65
1519808449.0,19273,4.44,71774.8,-14.59,-28.05,-25.45,0,*6E
1519808450.25,19274,4.44,71774.5,-14.59,-28.53,-26.07,0,*6F
1519808451.52,19275,4.44,71772.3,-14.61,-28.21,-25.71,0,*62
1519808452.76,19276,4.38,71770.5,-14.63,-27.93,-25.13,0,*61
1519808453.99,19277,4.38,71774.5,-14.63,-27.07,-24.61,0,*69
1519808455.2,19278,4.38,71774.0,-14.61,-27.07,-24.57,0,*61
1519808456.43,19279,4.38,71774.3,-14.61,-26.23,-23.65,0,*61
1519808457.66,19280,4.38,71770.8,-14.61,-26.61,-24.11,0,*65
1519808458.9,19281,4.38,71770.8,-14.61,-28.25,-26.23,0,*69
1519808460.19,19282,4.44,71774.8,-14.63,-27.61,-25.29,0,*6E
1519808461.44,19283,4.38,71774.0,-14.63,-27.13,-24.67,0,*61
1519808462.7,19284,4.44,71776.3,-14.67,-28.31,-25.75,0,*6F
1519808463.99,19285,4.44,71774.0,-14.67,-26.77,-24.11,0,*61
1519808465.23,19286,4.38,71772.0,-14.67,-25.49,-22.97,0,*64
1519808466.49,19287,4.44,71772.8,-14.61,-25.75,-23.29,0,*68
1519808467.76,19288,4.38,71768.3,-14.59,-27.51,-25.03,0,*66
1519808468.99,19289,4.44,71776.5,-14.61,-27.55,-25.03,0,*68
1519808470.21,19290,4.44,71780.8,-14.61,-27.77,-25.09,0,*6A
1519808471.47,19291,4.38,71776.5,-14.63,-28.97,-26.29,0,*69
1519808472.71,19292,4.38,71774.8,-14.67,-28.97,-26.39,0,*6F
1519808473.95,19293,4.44,71776.8,-14.67,-27.55,-24.77,0,*67
1519808475.23,19294,4.38,71772.0,-14.63,-25.97,-23.29,0,*64
1519808476.49,19295,4.38,71772.8,-14.63,-25.81,-23.13,0,*6B
1519808477.72,19296,4.38,71778.0,-14.61,-25.55,-22.83,0,*6B
1519808478.97,19297,4.38,71776.3,-14.59,-25.39,-22.67,0,*61
1519808480.24,19298,4.38,71778.8,-14.55,-25.39,-22.77,0,*63
1519808481.52,19299,4.38,71778.0,-14.55,-24.83,-22.11,0,*62
1519808482.77,19300,4.38,71774.0,-14.55,-24.97,-22.57,0,*64
1519808483.99,19301,4.44,71778.3,-14.53,-25.65,-23.13,0,*6E
1519808485.25,19302,4.38,71774.8,-14.53,-25.75,-23.13,0,*6C
1519808486.47,19303,4.38,71778.3,-14.49,-25.13,-22.41,0,*60
1519808487.69,19304,4.38,71774.8,-14.49,-25.23,-22.53,0,*67
1519808488.94,19305,4.38,71772.5,-14.49,-26.39,-23.69,0,*66
1519808490.18,19306,4.38,71774.5,-14.45,-26.71,-24.05,0,*68
1519808491.45,19307,4.44,71776.3,-14.47,-26.07,-23.49,0,*65
1519808492.69,19308,4.44,71776.8,-14.47,-24.93,-22.53,0,*6F
1519808493.91,19309,4.38,71774.8,-14.45,-25.23,-22.67,0,*61
1519808495.13,19310,4.38,71772.0,-14.45,-26.87,-24.47,0,*60
1519808496.4,19311,4.44,71772.5,-14.45,-27.23,-24.87,0,*62
1519808497.68,19312,4.44,71776.0,-14.47,-26.07,-23.49,0,*61
1519808498.95,19313,4.44,71774.5,-14.45,-26.33,-23.65,0,*6B
1519808500.19,19314,4.44,71774.8,-14.45,-26.87,-23.95,0,*6C
1519808501.41,19315,4.44,71774.8,-14.45,-27.77,-25.19,0,*61
1519808502.66,19316,4.44,71776.3,-14.45,-27.45,-24.93,0,*60
1519808503.97,19317,4.38,71776.8,-14.47,-28.25,-25.75,0,*63
1519808505.19,19318,4.38,71778.3,-14.49,-27.93,-25.35,0,*64
1519808506.44,19319,4.38,71778.0,-14.49,-26.61,-23.95,0,*65
1519808507.71,19320,4.44,71780.0,-14.49,-26.13,-23.49,0,*6B
1519808508.99,19321,4.38,71782.3,-14.47,-25.55,-22.97,0,*67
1519808510.27,19322,4.44,71778.3,-14.45,-25.03,-22.47,0,*68
1519808511.51,19323,4.38,71776.0,-14.45,-25.91,-23.29,0,*6B
1519808512.78,19324,4.38,71770.3,-14.43,-26.39,-23.53,0,*66
1519808514.05,19325,4.44,71772.3,-14.39,-26.13,-23.39,0,*6E
1519808515.33,19326,4.44,71772.3,-14.43,-26.33,-23.59,0,*64
1519808516.6,19327,4.38,71770.5,-14.39,-27.83,-25.19,0,*60
1519808517.85,19328,4.38,71772.5,-14.43,-27.29,-24.51,0,*6F
1519808519.15,19329,4.44,71774.3,-14.43,-26.81,-23.99,0,*6E
1519808520.43,19330,4.44,71778.8,-14.43,-27.67,-24.71,0,*6E
1519808521.74,19331,4.44,71778.0,-14.39,-26.97,-24.25,0,*6D
1519808522.98,19332,4.44,71768.3,-14.39,-27.13,-24.35,0,*62
1519808524.25,19333,4.44,71772.3,-14.39,-26.49,-23.69,0,*63
1519808525.5,19334,4.38,71768.3,-14.39,-27.51,-24.97,0,*6A
1519808526.77,19335,4.38,71772.3,-14.39,-27.19,-24.51,0,*6D
1519808528.01,19336,4.38,71770.8,-14.39,-28.15,-25.35,0,*6E
1519808529.29,19337,4.38,71770.3,-14.43,-29.23,-26.71,0,*65
1519808530.59,19338,4.38,71770.8,-14.43,-28.59,-25.97,0,*6D
1519808531.84,19339,4.44,71774.5,-14.45,-27.61,-24.57,0,*63
1519808533.06,19340,4.38,71768.0,-14.45,-27.71,-24.93,0,*64
1519808534.31,19341,4.38,71774.8,-14.47,-27.55,-24.77,0,*6B
1519808535.54,19342,4.38,71772.8,-14.45,-27.07,-24.31,0,*6F
1519808536.78,19343,4.38,71776.8,-14.45,-25.91,-23.33,0,*66
1519808538.08,19344,4.44,71772.0,-14.43,-25.97,-23.29,0,*6A
1519808539.36,19345,4.44,71774.5,-14.39,-25.55,-22.93,0,*68
1519808540.63,19346,4.38,71772.8,-14.39,-25.35,-22.77,0,*67
1519808541.89,19347,4.44,71772.3,-14.37,-25.13,-22.47,0,*6F
1519808543.13,19348,4.44,71774.0,-14.37,-26.45,-23.69,0,*6D
1519808544.41,19349,4.44,71776.3,-14.37,-26.29,-23.53,0,*6F
1519808545.7,19350,4.38,71774.3,-14.35,-26.81,-24.11,0,*66
1519808546.95,19351,4.44,71772.0,-14.37,-26.65,-23.95,0,*64
1519808548.24,19352,4.44,71776.8,-14.35,-26.77,-23.99,0,*6A
1519808549.51,19353,4.44,71778.3,-14.35,-25.91,-23.19,0,*68
1519808550.77,19354,4.44,71778.5,-14.35,-27.23,-24.47,0,*68
1519808552.07,19355,4.44,71778.5,-14.35,-28.63,-25.97,0,*6E
1519808553.31,19356,4.44,71784.3,-14.35,-30.33,-27.77,0,*6D
1519808554.59,19357,4.44,71778.8,-14.39,-28.05,-25.65,0,*6D
1519808555.86,19358,4.44,71776.5,-14.39,-26.49,-23.99,0,*61
1519808557.14,19359,4.38,71778.5,-14.39,-26.49,-23.99,0,*60
1519808558.41,19360,4.38,71780.0,-14.39,-26.87,-24.21,0,*6C
1519808559.66,19361,4.44,71776.0,-14.39,-26.49,-23.89,0,*6A
1519808560.91,19362,4.44,71772.0,-14.39,-26.39,-23.75,0,*6D
1519808562.16,19363,4.38,71772.0,-14.39,-26.49,-23.89,0,*68
1519808563.42,19364,4.44,71776.5,-14.39,-26.03,-23.43,0,*67
1519808564.69,19365,4.44,71772.5,-14.39,-25.03,-22.63,0,*66
1519808565.97,19366,4.44,71774.0,-14.37,-25.75,-23.19,0,*66
1519808567.22,19367,4.44,71774.3,-14.37,-26.45,-23.69,0,*60
1519808568.47,19368,4.44,71774.3,-14.37,-27.45,-24.51,0,*62
1519808569.74,19369,4.44,71774.3,-14.35,-26.07,-23.23,0,*64
1519808571.02,19370,4.44,71764.5,-14.37,-26.81,-23.99,0,*61
1519808572.24,19371,4.38,71766.5,-14.37,-27.29,-24.35,0,*62
1519808573.5,19372,4.44,71770.0,-14.37,-28.79,-25.65,0,*6F
1519808574.77,19373,4.44,71770.5,-14.39,-27.83,-24.57,0,*6A
1519808576.03,19374,4.44,71772.0,-14.39,-28.53,-25.65,0,*6F
1519808577.33,19375,4.44,71772.3,-14.43,-29.39,-26.55,0,*6E
1519808578.57,19376,4.44,71778.5,-14.45,-27.35,-24.31,0,*69
1519808579.82,19377,4.44,71776.0,-14.47,-27.77,-24.77,0,*6E
1519808581.13,19378,4.44,71778.0,-14.47,-28.79,-25.71,0,*67
1519808582.4,19379,4.44,71774.5,-14.47,-26.39,-23.33,0,*6C
1519808583.65,19380,4.38,71778.5,-14.45,-27.07,-23.95,0,*68
1519808584.9,19381,4.44,71780.0,-14.45,-27.93,-24.87,0,*60
1519808586.18,19382,4.44,71774.8,-14.47,-28.37,-25.29,0,*65
1519808587.43,19383,4.44,71778.3,-14.47,-27.77,-24.77,0,*65
1519808588.72,19384,4.44,71776.3,-14.47,-26.55,-23.49,0,*69
1519808589.99,19385,4.44,71780.0,-14.47,-26.45,-23.49,0,*69
1519808591.22,19386,4.44,71782.0,-14.45,-25.91,-22.93,0,*64
1519808592.44,19387,4.44,71774.8,-14.45,-25.91,-22.97,0,*61
1519808593.66,19388,4.44,71778.8,-14.45,-26.23,-23.13,0,*69
1519808594.95,19389,4.44,71778.0,-14.43,-26.55,-23.53,0,*6B
1519808596.23,19390,4.44,71780.8,-14.43,-29.57,-26.71,0,*6B
1519808597.48,19391,4.44,71776.3,-14.47,-27.07,-24.05,0,*64
1519808598.74,19392,4.44,71774.8,-14.45,-26.55,-23.65,0,*62
1519808599.96,19393,4.38,71774.8,-14.45,-26.23,-23.09,0,*68
1519808601.25,19394,4.38,71774.8,-14.47,-27.61,-24.61,0,*63
1519808602.46,19395,4.44,71778.5,-14.45,-26.87,-23.89,0,*68
1519808603.71,19396,4.44,71774.0,-14.45,-28.09,-25.23,0,*65
1519808604.96,19397,4.44,71770.3,-14.47,-29.07,-25.91,0,*60
1519808606.26,19398,4.38,71768.0,-14.47,-28.09,-25.03,0,*6B
1519808607.53,19399,4.44,71774.0,-14.47,-27.55,-24.25,0,*69
1519808608.78,19400,4.44,71772.0,-14.47,-27.07,-23.89,0,*68
1519808610.04,19401,4.44,71774.5,-14.49,-27.61,-24.61,0,*66
1519808611.29,19402,4.44,71772.3,-14.49,-28.31,-25.29,0,*62
1519808612.54,19403,4.44,71776.3,-14.49,-28.09,-24.97,0,*6C
1519808613.76,19404,4.44,71772.5,-14.49,-27.51,-24.61,0,*60
1519808615.01,19405,4.44,71774.3,-14.49,-27.45,-24.35,0,*65
1519808616.23,19406,4.44,71778.8,-14.53,-27.77,-24.61,0,*6D
1519808617.46,19407,4.44,71778.5,-14.53,-29.61,-26.65,0,*63
1519808618.7,19408,4.44,71772.3,-14.53,-28.85,-25.65,0,*64
1519808619.96,19409,4.44,71776.5,-14.53,-27.61,-24.61,0,*65
1519808621.21,19410,4.44,71780.0,-14.49,-27.45,-24.31,0,*65
1519808622.44,19411,4.38,71772.8,-14.49,-27.29,-24.31,0,*6E
1519808623.68,19412,4.44,71774.8,-14.49,-27.99,-24.97,0,*6A
1519808624.93,19413,4.44,71772.8,-14.53,-28.09,-24.93,0,*62
1519808626.18,19414,4.44,71774.5,-14.53,-27.99,-24.93,0,*63
1519808627.46,19415,4.44,71778.8,-14.53,-26.81,-23.95,0,*6B
1519808628.73,19416,4.44,71776.8,-14.53,-27.23,-24.25,0,*6D
1519808629.99,19417,4.44,71774.8,-14.53,-28.63,-25.61,0,*66
1519808631.24,19418,4.44,71772.0,-14.53,-27.67,-24.67,0,*65
1519808632.47,19419,4.44,71778.8,-14.53,-28.31,-25.23,0,*69
1519808633.73,19420,4.44,71780.3,-14.53,-28.25,-25.09,0,*6E
1519808634.94,19421,4.44,71778.0,-14.57,-30.45,-27.51,0,*6B
1519808636.19,19422,4.38,71778.3,-14.57,-28.79,-25.91,0,*60
1519808637.41,19423,4.44,71782.8,-14.57,-28.97,-26.07,0,*6D
1519808638.66,19424,4.44,71774.3,-14.57,-27.03,-24.11,0,*6D
1519808639.9,19425,4.44,71776.5,-14.57,-26.55,-23.75,0,*6B
1519808641.21,19426,4.44,71780.3,-14.55,-26.17,-23.19,0,*66
1519808642.51,19427,4.44,71778.8,-14.55,-28.47,-25.71,0,*64
1519808643.78,19428,4.44,71776.5,-14.55,-28.21,-25.35,0,*6B
1519808645.05,19429,4.44,71780.8,-14.55,-27.35,-24.57,0,*65
1519808646.29,19430,4.44,71776.3,-14.57,-26.87,-23.95,0,*6E
1519808647.54,19431,4.44,71782.3,-14.57,-26.55,-23.75,0,*6E
1519808648.81,19432,4.44,71776.8,-14.57,-27.39,-24.41,0,*66
1519808650.08,19433,4.44,71774.5,-14.55,-26.81,-23.89,0,*64
1519808651.31,19434,4.44,71776.3,-14.57,-26.61,-23.75,0,*6C
1519808652.58,19435,4.44,71778.5,-14.55,-28.47,-25.39,0,*6B
1519808653.83,19436,4.44,71778.8,-14.57,-27.13,-24.21,0,*6C
1519808655.11,19437,4.44,71778.8,-14.55,-26.81,-23.75,0,*63
1519808656.37,19438,4.44,71780.8,-14.55,-26.49,-23.43,0,*6D
1519808657.61,19439,4.44,71782.0,-14.53,-27.07,-24.11,0,*61
1519808658.87,19440,4.44,71786.0,-14.53,-27.77,-24.83,0,*63
1519808660.14,19441,4.44,71774.3,-14.53,-27.23,-24.25,0,*6F
1519808661.37,19442,4.44,71776.3,-14.49,-27.29,-24.31,0,*68
1519808662.62,19443,4.44,71774.5,-14.53,-27.99,-25.13,0,*68
1519808663.9,19444,4.44,71780.3,-14.49,-30.01,-27.39,0,*69
1519808665.15,19445,4.44,71782.5,-14.57,-30.27,-27.35,0,*6F
1519808666.42,19446,4.44,71776.3,-14.57,-28.79,-26.17,0,*6F
1519808667.72,19447,4.44,71776.5,-14.59,-30.01,-27.61,0,*66
1519808668.95,19448,4.44,71774.5,-14.61,-30.51,-27.89,0,*61
1519808670.23,19449,4.44,71776.0,-14.63,-30.73,-27.83,0,*68
1519808671.51,19450,4.44,71772.8,-14.67,-30.51,-27.83,0,*64
1519808672.75,19451,4.44,71778.0,-14.69,-32.13,-29.51,0,*6E
1519808674.01,19452,4.44,71776.3,-14.71,-31.67,-29.01,0,*61
1519808675.26,19453,4.44,71780.5,-14.75,-31.39,-28.69,0,*60
1519808676.55,19454,4.44,71782.0,-14.79,-32.45,-29.51,0,*69
1519808677.82,19455,4.44,71780.8,-14.83,-32.29,-29.17,0,*65
1519808679.11,19456,4.44,71784.0,-14.83,-29.89,-26.97,0,*61
1519808680.38,19457,4.44,71786.3,-14.83,-27.61,-24.35,0,*62
1519808681.63,19458,4.44,71782.8,-14.83,-26.61,-23.65,0,*6E
1519808682.92,19459,4.44,71784.3,-14.83,-26.33,-23.33,0,*6B
1519808684.16,19460,4.44,71782.0,-14.81,-26.33,-23.39,0,*69
1519808685.42,19461,4.44,71784.5,-14.75,-26.55,-23.43,0,*6E
1519808686.7,19462,4.44,71780.0,-14.75,-26.17,-23.29,0,*67
1519808687.95,19463,4.44,71780.0,-14.75,-27.19,-24.51,0,*61
1519808689.21,19464,4.44,71780.5,-14.75,-28.09,-25.23,0,*6C
1519808690.47,19465,4.44,71780.3,-14.75,-27.93,-25.03,0,*63
1519808691.71,19466,4.44,71782.3,-14.73,-27.77,-24.87,0,*61
1519808692.95,19467,4.44,71780.3,-14.75,-27.93,-25.09,0,*6B
1519808694.22,19468,4.44,71778.8,-14.73,-28.75,-25.75,0,*6E
1519808695.45,19469,4.44,71780.5,-14.75,-31.17,-28.53,0,*6C
1519808696.68,19470,4.44,71778.0,-14.75,-31.05,-28.37,0,*65
1519808697.91,19471,4.44,71780.3,-14.81,-30.39,-27.67,0,*6B
1519808699.17,19472,4.44,71778.5,-14.81,-30.05,-27.35,0,*60
1519808700.4,19473,4.44,71782.8,-14.81,-30.23,-27.45,0,*62
1519808701.66,19474,4.44,71778.5,-14.83,-29.23,-26.33,0,*6F
1519808702.87,19475,4.44,71780.5,-14.85,-27.93,-25.19,0,*66
1519808704.08,19476,4.44,71780.3,-14.85,-27.07,-24.35,0,*67
1519808705.33,19477,4.44,71780.3,-14.83,-28.37,-25.65,0,*68
1519808706.61,19478,4.44,71782.5,-14.83,-30.05,-27.35,0,*68
1519808707.84,19479,4.44,71782.5,-14.85,-29.61,-26.93,0,*68
1519808709.08,19480,4.44,71782.8,-14.85,-29.39,-26.49,0,*64
1519808710.33,19481,4.44,71780.8,-14.89,-29.01,-26.07,0,*68
1519808711.57,19482,4.44,71778.5,-14.89,-27.67,-24.87,0,*6F
1519808712.8,19483,4.44,71772.8,-14.89,-28.37,-25.65,0,*69
1519808714.03,19484,4.44,71774.8,-14.89,-26.55,-23.89,0,*60
1519808715.29,19485,4.44,71776.5,-14.83,-27.51,-24.67,0,*69
1519808716.52,19486,4.44,71776.5,-14.83,-27.67,-24.97,0,*60
1519808717.76,19487,4.44,71778.5,-14.85,-29.73,-27.55,0,*61
1519808719.02,19488,4.44,71774.3,-14.89,-32.45,-30.05,0,*6E
1519808720.28,19489,4.44,71774.8,-14.93,-31.73,-28.97,0,*60
1519808721.52,19490,4.44,71776.5,-14.97,-32.69,-30.45,0,*62
1519808722.79,19491,4.44,71776.3,-14.99,-33.43,-31.51,0,*60
1519808724.02,19492,4.44,71778.5,-15.01,-32.23,-30.11,0,*61
1519808725.32,19493,4.44,71780.8,-15.05,-31.57,-29.35,0,*6A
1519808726.55,19494,4.44,71782.0,-15.07,-31.05,-29.01,0,*6F
1519808727.85,19495,4.44,71778.3,-15.09,-29.39,-27.19,0,*61
1519808729.14,19496,4.44,71774.5,-15.09,-30.61,-28.63,0,*65
1519808730.41,19497,4.44,71776.5,-15.09,-29.73,-27.67,0,*64
1519808731.65,19498,4.44,71776.5,-15.15,-31.57,-29.61,0,*61
1519808732.89,19499,4.44,71776.3,-15.15,-30.67,-28.59,0,*68
1519808734.13,19500,4.44,71772.3,-15.17,-29.61,-27.71,0,*60
1519808735.43,19501,4.44,71774.0,-15.17,-28.25,-26.17,0,*61
1519808736.67,19502,4.44,71768.3,-15.17,-27.51,-25.35,0,*6D
1519808737.94,19503,4.44,71770.8,-15.17,-27.71,-25.55,0,*68
1519808739.24,19504,4.44,71774.8,-15.13,-28.21,-26.13,0,*60
1519808740.5,19505,4.44,71772.3,-15.13,-30.01,-27.67,0,*68
1519808741.75,19506,4.44,71778.3,-15.15,-28.21,-25.87,0,*6A
1519808743.01,19507,4.44,71786.3,-15.15,-26.71,-24.41,0,*6B
1519808744.28,19508,4.44,71782.5,-15.13,-26.29,-24.05,0,*6F
1519808745.55,19509,4.44,71772.8,-15.09,-26.93,-24.61,0,*66
1519808746.76,19510,4.44,71776.3,-15.07,-27.07,-24.47,0,*68
1519808748.01,19511,4.44,71776.5,-15.07,-27.61,-25.23,0,*6A
1519808749.25,19512,4.44,71782.5,-15.07,-27.93,-25.29,0,*6E
1519808750.47,19513,4.44,71778.0,-15.03,-27.93,-25.39,0,*6A
1519808751.74,19514,4.44,71778.5,-15.05,-30.73,-28.15,0,*60
1519808753.0,19515,4.44,71778.0,-15.05,-31.01,-28.43,0,*66
1519808754.27,19516,4.44,71778.5,-15.05,-29.45,-26.93,0,*6F
1519808755.51,19517,4.44,71776.5,-15.03,-28.31,-25.71,0,*65
1519808756.78,19518,4.44,71780.0,-15.05,-28.15,-25.45,0,*6D
1519808758.0,19519,4.44,71776.5,-15.03,-28.97,-26.39,0,*68
1519808759.24,19520,4.44,71778.5,-15.03,-29.35,-26.61,0,*66
1519808760.46,19521,4.44,71778.8,-15.03,-28.97,-26.45,0,*68
1519808761.67,19522,4.44,71776.0,-15.03,-29.23,-26.45,0,*65
1519808762.92,19523,4.44,71778.3,-15.03,-27.93,-25.29,0,*68
1519808764.16,19524,4.44,71774.8,-15.03,-28.31,-25.75,0,*61
1519808765.4,19525,4.44,71778.3,-14.99,-29.61,-27.35,0,*60
1519808766.61,19526,4.44,71774.8,-14.99,-30.11,-27.51,0,*6E
1519808767.85,19527,4.44,71774.8,-14.99,-29.29,-26.65,0,*6A
1519808769.12,19528,4.44,71778.5,-15.01,-28.05,-25.49,0,*67
1519808770.37,19529,4.44,71776.0,-14.99,-28.05,-25.49,0,*66
1519808771.64,19530,4.44,71782.8,-14.99,-28.91,-26.33,0,*6D
1519808772.87,19531,4.44,71778.0,-14.99,-28.43,-25.87,0,*6F
1519808774.12,19532,4.44,71778.0,-14.99,-29.01,-26.39,0,*6D
1519808775.33,19533,4.44,71780.3,-14.99,-28.37,-25.87,0,*6E
1519808776.54,19534,4.44,71782.0,-14.99,-29.07,-26.49,0,*6A
1519808777.81,19535,4.44,71780.3,-14.99,-30.61,-28.21,0,*63
1519808779.06,19536,4.44,71780.0,-14.99,-29.17,-26.55,0,*64
1519808780.3,19537,4.44,71774.3,-14.99,-29.79,-27.35,0,*6A
1519808781.54,19538,4.44,71778.0,-14.99,-29.23,-26.71,0,*6B
1519808782.78,19539,4.44,71780.3,-14.99,-29.79,-27.35,0,*64
1519808784.0,19540,4.44,71778.8,-14.99,-29.61,-27.07,0,*62
1519808785.21,19541,4.44,71780.0,-14.99,-27.89,-25.39,0,*64
1519808786.47,19542,4.44,71776.8,-14.97,-26.81,-24.35,0,*6D
1519808787.71,19543,4.44,71776.5,-14.97,-27.13,-24.61,0,*67
1519808788.96,19544,4.44,71776.8,-14.95,-27.19,-24.67,0,*6E
1519808790.22,19545,4.44,71780.3,-14.93,-26.97,-24.31,0,*6D
1519808791.47,19546,4.44,71774.5,-14.91,-27.71,-25.09,0,*6F
1519808792.71,19547,4.44,71780.0,-14.91,-27.29,-24.57,0,*69
1519808793.97,19548,4.44,71776.0,-14.89,-27.35,-24.87,0,*6F
1519808795.18,19549,4.44,71780.5,-14.89,-27.55,-24.93,0,*6D
1519808796.42,19550,4.44,71778.8,-14.85,-27.23,-24.57,0,*60
1519808797.69,19551,4.44,71778.0,-14.83,-27.35,-24.83,0,*69
1519808798.93,19552,4.44,71780.8,-14.83,-27.03,-24.47,0,*67
1519808800.19,19553,4.44,71782.8,-14.83,-27.89,-25.29,0,*6D
1519808801.43,19554,4.44,71776.5,-14.81,-27.61,-25.13,0,*67
1519808802.65,19555,4.44,71778.3,-14.81,-27.77,-25.13,0,*61
1519808803.88,19556,4.44,71778.8,-14.81,-27.51,-24.87,0,*6A
1519808805.14,19557,4.44,71780.8,-14.79,-27.83,-25.13,0,*6F
1519808806.42,19558,4.44,71778.8,-14.79,-27.45,-24.83,0,*62
1519808807.66,19559,4.44,71782.3,-14.75,-27.55,-24.77,0,*65
1519808808.91,19560,4.44,71778.3,-14.75,-27.51,-24.87,0,*64
1519808810.15,19561,4.44,71776.8,-14.75,-27.07,-24.57,0,*6B
1519808811.44,19562,4.44,71782.0,-14.75,-27.23,-24.71,0,*6A
1519808812.67,19563,4.44,71780.5,-14.73,-27.39,-24.93,0,*6A
1519808813.92,19564,4.44,71780.0,-14.73,-28.05,-25.61,0,*61
1519808815.16,19565,4.44,71780.8,-14.75,-29.57,-27.07,0,*62
1519808816.43,19566,4.44,71780.3,-14.75,-28.05,-25.49,0,*6F
1519808817.69,19567,4.44,71780.3,-14.73,-26.71,-24.25,0,*6E
1519808818.96,19568,4.44,71776.3,-14.71,-26.97,-24.51,0,*68
1519808820.19,19569,4.44,71782.3,-14.71,-26.87,-24.47,0,*6F
1519808821.4,19570,4.44,71784.8,-14.69,-27.71,-25.19,0,*6C
1519808822.66,19571,4.44,71776.0,-14.69,-29.01,-26.71,0,*69
1519808823.9,19572,4.44,71780.0,-14.69,-27.99,-25.49,0,*6D
1519808825.12,19573,4.44,71782.0,-14.69,-27.89,-25.49,0,*6D
1519808826.36,19574,4.44,71782.5,-14.69,-28.53,-25.97,0,*61
1519808827.58,19575,4.44,71786.5,-14.69,-28.53,-26.03,0,*6E
1519808828.79,19576,4.44,71786.5,-14.69,-26.65,-24.35,0,*61
1519808830.02,19577,4.44,71784.5,-14.69,-26.61,-24.15,0,*66
1519808831.3,19578,4.44,71784.3,-14.63,-26.29,-23.95,0,*60
1519808832.58,19579,4.44,71780.3,-14.67,-26.55,-24.15,0,*61
1519808833.85,19580,4.44,71786.5,-14.63,-26.29,-23.95,0,*67
1519808835.09,19581,4.44,71786.3,-14.63,-25.39,-23.13,0,*6A
1519808836.36,19582,4.44,71782.8,-14.61,-25.55,-23.23,0,*62
1519808837.6,19583,4.44,71786.5,-14.59,-27.71,-25.19,0,*63
1519808838.87,19584,4.44,71776.8,-14.59,-26.93,-24.61,0,*67
1519808840.12,19585,4.44,71776.8,-14.61,-27.61,-25.23,0,*66
1519808841.35,19586,4.44,71776.8,-14.61,-27.03,-24.71,0,*67
1519808842.58,19587,4.44,71786.3,-14.61,-26.49,-23.95,0,*64
1519808843.85,19588,4.44,71778.5,-14.59,-27.19,-24.77,0,*6F
1519808845.12,19589,4.44,71778.8,-14.59,-27.55,-25.03,0,*64
1519808846.39,19590,4.44,71776.0,-14.59,-27.89,-25.45,0,*6F
1519808847.6,19591,4.44,71778.3,-14.61,-27.07,-24.77,0,*63
1519808848.84,19592,4.44,71776.0,-14.61,-27.39,-24.77,0,*6D
1519808850.13,19593,4.44,71780.3,-14.59,-26.55,-24.11,0,*6C
1519808851.4,19594,4.44,71782.0,-14.59,-26.17,-23.89,0,*6B
1519808852.64,19595,4.44,71782.0,-14.59,-26.87,-24.47,0,*66
1519808853.89,19596,4.44,71776.3,-14.55,-26.49,-24.05,0,*6D
1519808855.17,19597,4.44,71784.5,-14.53,-26.13,-23.85,0,*6A
1519808856.44,19598,4.44,71780.8,-14.53,-27.45,-24.83,0,*66
1519808857.72,19599,4.44,71778.5,-14.55,-26.97,-24.51,0,*60
1519808858.95,19600,4.44,71778.5,-14.49,-27.07,-24.61,0,*65
1519808860.2,19601,4.44,71776.8,-14.53,-27.23,-24.61,0,*69
1519808861.45,19602,4.5,71784.0,-14.49,-26.81,-24.31,0,*6D
1519808862.7,19603,4.44,71780.3,-14.49,-26.61,-23.99,0,*67
1519808863.95,19604,4.44,71782.0,-14.49,-26.39,-23.99,0,*6D
1519808865.22,19605,4.44,71776.8,-14.47,-28.59,-25.91,0,*64
1519808866.52,19606,4.44,71780.8,-14.47,-26.71,-24.21,0,*69
1519808867.76,19607,4.44,71780.5,-14.45,-26.45,-23.95,0,*65
1519808869.06,19608,4.44,71778.3,-14.43,-27.39,-24.71,0,*6B
1519808870.31,19609,4.44,71776.3,-14.45,-27.45,-24.93,0,*6B
1519808871.58,19610,4.44,71778.5,-14.45,-27.35,-24.87,0,*61
1519808872.8,19611,4.44,71776.8,-14.45,-27.03,-24.61,0,*6D
1519808874.02,19612,4.44,71776.3,-14.45,-26.87,-24.31,0,*66
1519808875.29,19613,4.44,71782.0,-14.43,-27.51,-24.87,0,*66
1519808876.56,19614,4.5,71784.5,-14.39,-26.87,-24.41,0,*6C
1519808877.84,19615,4.44,71782.0,-14.39,-26.03,-23.69,0,*6C
1519808879.11,19616,4.44,71782.3,-14.43,-26.13,-23.59,0,*60
1519808880.36,19617,4.44,71786.0,-14.37,-26.49,-24.11,0,*66
1519808881.64,19618,4.44,71784.5,-14.37,-25.97,-23.49,0,*63
1519808882.9,19619,4.44,71792.3,-14.35,-26.65,-24.11,0,*64
1519808884.16,19620,4.44,71788.8,-14.35,-27.13,-24.67,0,*6F
1519808885.41,19621,4.44,71788.0,-14.35,-28.85,-26.61,0,*6A
1519808886.68,19622,4.44,71786.8,-14.35,-27.77,-25.45,0,*6E
1519808887.92,19623,4.44,71790.0,-14.35,-25.65,-23.39,0,*63
1519808889.18,19624,4.44,71786.5,-14.35,-25.49,-23.49,0,*6D
1519808890.45,19625,4.44,71786.3,-14.35,-24.67,-22.37,0,*69
1519808891.75,19626,4.44,71786.8,-14.31,-23.95,-21.53,0,*65
1519808893.0,19627,4.5,71786.3,-14.27,-24.41,-21.93,0,*61
1519808894.28,19628,4.44,71778.0,-14.27,-24.21,-21.83,0,*69
1519808895.53,19629,4.44,71780.3,-14.27,-25.03,-22.63,0,*64
1519808896.79,19630,4.44,71780.3,-14.25,-25.19,-22.73,0,*64
1519808898.03,19631,4.44,71780.3,-14.23,-27.35,-24.97,0,*63
1519808899.31,19632,4.44,71780.3,-14.25,-28.31,-25.97,0,*6C
1519808900.58,19633,4.44,71778.0,-14.25,-27.67,-25.45,0,*6E
1519808901.86,19634,4.44,71772.5,-14.25,-26.81,-24.61,0,*67